"Sample Date","Sample Time","Sample Value","Units","Flow Rate","Sample Interval","Number Channels","Micron Size 0","Counts/Channel 0","Micron Size 1","Counts/Channel 1","Micron Size 2","Counts/Channel 2","Micron Size 3","Counts/Channel 3","Micron Size 4","Counts/Channel 4","Micron Size 5","Counts/Channel 5","Micron Size 6","Counts/Channel 6","Micron Size 7","Counts/Channel 7","Micron Size 8","Counts/Channel 8","Micron Size 9","Counts/Channel 9","Micron Size 10","Counts/Channel 10","Micron Size 11","Counts/Channel 11","Micron Size 12","Counts/Channel 12","Micron Size 13","Counts/Channel 13","Micron Size 14","Counts/Channel 14","Micron Size 15","Counts/Channel 15","Micron Size 16","Counts/Channel 16","Micron Size 17","Counts/Channel 17","Micron Size 18","Counts/Channel 18","Micron Size 19","Counts/Channel 19","Micron Size 20","Counts/Channel 20","Micron Size 21","Counts/Channel 21","Micron Size 22","Counts/Channel 22","Micron Size 23","Counts/Channel 23","Micron Size 24","Counts/Channel 24","Micron Size 25","Counts/Channel 25","Micron Size 26","Counts/Channel 26","Micron Size 27","Counts/Channel 27","Micron Size 28","Counts/Channel 28","Micron Size 29","Counts/Channel 29","Micron Size 30","Counts/Channel 30","Micron Size 31","Counts/Channel 31"
"04/01/08","04:00:00",11315.000,"cc",28308.863,6.00,6,0.100,8188.000,0.200,1367.000,0.300,727.000,0.500,753.000,1.000,280.000,5.000,0
"04/01/08","04:00:06",11170.000,"cc",28322.469,6.00,6,0.100,8093.000,0.200,1403.000,0.300,697.000,0.500,706.000,1.000,271.000,5.000,0
"04/01/08","04:00:12",11124.000,"cc",28278.002,6.00,6,0.100,8152.000,0.200,1300.000,0.300,697.000,0.500,754.000,1.000,221.000,5.000,0
"04/01/08","04:00:18",11307.000,"cc",28246.035,6.00,6,0.100,8256.000,0.200,1335.000,0.300,703.000,0.500,781.000,1.000,232.000,5.000,0
"04/01/08","04:00:24",11462.000,"cc",28349.080,6.00,6,0.100,8351.000,0.200,1363.000,0.300,695.000,0.500,783.000,1.000,270.000,5.000,0
"04/01/08","04:00:30",11273.000,"cc",28367.107,6.00,6,0.100,8175.000,0.200,1358.000,0.300,673.000,0.500,784.000,1.000,283.000,5.000,0
"04/01/08","04:00:36",11429.000,"cc",28371.762,6.00,6,0.100,8357.000,0.200,1349.000,0.300,705.000,0.500,770.000,1.000,248.000,5.000,0
"04/01/08","04:00:42",11460.000,"cc",28269.303,6.00,6,0.100,8297.000,0.200,1398.000,0.300,703.000,0.500,780.000,1.000,282.000,5.000,0
"04/01/08","04:00:48",11927.000,"cc",28310.065,6.00,6,0.100,8615.000,0.200,1422.000,0.300,748.000,0.500,838.000,1.000,304.000,5.000,0
"04/01/08","04:00:54",11855.000,"cc",28356.967,6.00,6,0.100,8603.000,0.200,1446.000,0.300,727.000,0.500,792.000,1.000,287.000,5.000,0
"04/01/08","04:01:00",12156.000,"cc",28305.846,6.00,6,0.100,8733.000,0.200,1450.000,0.300,793.000,0.500,881.000,1.000,299.000,5.000,0
"04/01/08","04:01:06",11740.000,"cc",28252.215,6.00,6,0.100,8464.000,0.200,1405.000,0.300,759.000,0.500,817.000,1.000,295.000,5.000,0
"04/01/08","04:01:12",11856.000,"cc",28290.260,6.00,6,0.100,8549.000,0.200,1430.000,0.300,750.000,0.500,838.000,1.000,289.000,5.000,0
"04/01/08","04:01:18",11733.000,"cc",28354.662,6.00,6,0.100,8473.000,0.200,1372.000,0.300,781.000,0.500,828.000,1.000,279.000,5.000,0
"04/01/08","04:01:24",11777.000,"cc",28311.162,6.00,6,0.100,8363.000,0.200,1490.000,0.300,774.000,0.500,843.000,1.000,307.000,5.000,0
"04/01/08","04:01:30",12040.000,"cc",28329.789,6.00,6,0.100,8727.000,0.200,1412.000,0.300,789.000,0.500,844.000,1.000,268.000,5.000,0
"04/01/08","04:01:36",11743.000,"cc",28369.539,6.00,6,0.100,8500.000,0.200,1433.000,0.300,705.000,0.500,840.000,1.000,265.000,5.000,0
"04/01/08","04:01:42",11894.000,"cc",28302.684,6.00,6,0.100,8558.000,0.200,1401.000,0.300,784.000,0.500,837.000,1.000,314.000,5.000,0
"04/01/08","04:01:48",11793.000,"cc",28379.785,6.00,6,0.100,8609.000,0.200,1378.000,0.300,684.000,0.500,832.000,1.000,290.000,5.000,0
"04/01/08","04:01:54",11937.000,"cc",28334.420,6.00,6,0.100,8516.000,0.200,1449.000,0.300,825.000,0.500,858.000,1.000,289.000,5.000,0
"04/01/08","04:02:00",11939.000,"cc",28375.797,6.00,6,0.100,8623.000,0.200,1431.000,0.300,783.000,0.500,818.000,1.000,284.000,5.000,0
"04/01/08","04:02:06",11821.000,"cc",28235.856,6.00,6,0.100,8434.000,0.200,1396.000,0.300,753.000,0.500,887.000,1.000,351.000,5.000,0
"04/01/08","04:02:12",11889.000,"cc",28309.135,6.00,6,0.100,8586.000,0.200,1435.000,0.300,725.000,0.500,837.000,1.000,306.000,5.000,0
"04/01/08","04:02:18",12102.000,"cc",28326.744,6.00,6,0.100,8645.000,0.200,1553.000,0.300,765.000,0.500,822.000,1.000,317.000,5.000,0
"04/01/08","04:02:24",11864.000,"cc",28277.537,6.00,6,0.100,8479.000,0.200,1444.000,0.300,763.000,0.500,844.000,1.000,334.000,5.000,0
"04/01/08","04:02:30",11883.000,"cc",28364.857,6.00,6,0.100,8484.000,0.200,1487.000,0.300,788.000,0.500,838.000,1.000,286.000,5.000,0
"04/01/08","04:02:36",11914.000,"cc",28224.018,6.00,6,0.100,8641.000,0.200,1433.000,0.300,758.000,0.500,810.000,1.000,272.000,5.000,0
"04/01/08","04:02:42",12054.000,"cc",28313.457,6.00,6,0.100,8632.000,0.200,1496.000,0.300,814.000,0.500,820.000,1.000,292.000,5.000,0
"04/01/08","04:02:48",11767.000,"cc",28232.574,6.00,6,0.100,8410.000,0.200,1462.000,0.300,738.000,0.500,813.000,1.000,344.000,5.000,0
"04/01/08","04:02:54",12015.000,"cc",28346.723,6.00,6,0.100,8679.000,0.200,1430.000,0.300,782.000,0.500,815.000,1.000,309.000,5.000,0
"04/01/08","04:03:00",11863.000,"cc",28396.299,6.00,6,0.100,8593.000,0.200,1393.000,0.300,735.000,0.500,858.000,1.000,284.000,5.000,0
"04/01/08","04:03:06",12171.000,"cc",28353.416,6.00,6,0.100,8724.000,0.200,1470.000,0.300,798.000,0.500,860.000,1.000,319.000,5.000,0
"04/01/08","04:03:12",11856.000,"cc",28289.371,6.00,6,0.100,8558.000,0.200,1390.000,0.300,774.000,0.500,836.000,1.000,298.000,5.000,0
"04/01/08","04:03:18",11802.000,"cc",28311.861,6.00,6,0.100,8603.000,0.200,1394.000,0.300,742.000,0.500,785.000,1.000,278.000,5.000,0
"04/01/08","04:03:24",11685.000,"cc",28325.709,6.00,6,0.100,8367.000,0.200,1439.000,0.300,763.000,0.500,817.000,1.000,299.000,5.000,0
"04/01/08","04:03:30",11699.000,"cc",28257.711,6.00,6,0.100,8391.000,0.200,1432.000,0.300,763.000,0.500,834.000,1.000,279.000,5.000,0
"04/01/08","04:03:36",11700.000,"cc",28384.273,6.00,6,0.100,8513.000,0.200,1353.000,0.300,711.000,0.500,843.000,1.000,280.000,5.000,0
"04/01/08","04:03:42",11655.000,"cc",28317.057,6.00,6,0.100,8358.000,0.200,1443.000,0.300,729.000,0.500,815.000,1.000,310.000,5.000,0
"04/01/08","04:03:48",11492.000,"cc",28346.150,6.00,6,0.100,8201.000,0.200,1458.000,0.300,735.000,0.500,814.000,1.000,284.000,5.000,0
"04/01/08","04:03:54",11203.000,"cc",28273.295,6.00,6,0.100,8031.000,0.200,1391.000,0.300,701.000,0.500,799.000,1.000,281.000,5.000,0
"04/01/08","04:04:00",11345.000,"cc",28304.979,6.00,6,0.100,8214.000,0.200,1401.000,0.300,682.000,0.500,781.000,1.000,267.000,5.000,0
"04/01/08","04:04:06",11201.000,"cc",28308.203,6.00,6,0.100,8122.000,0.200,1341.000,0.300,691.000,0.500,802.000,1.000,245.000,5.000,0
"04/01/08","04:04:12",11167.000,"cc",28355.748,6.00,6,0.100,8042.000,0.200,1382.000,0.300,688.000,0.500,793.000,1.000,262.000,5.000,0
"04/01/08","04:04:18",11028.000,"cc",28328.106,6.00,6,0.100,8028.000,0.200,1263.000,0.300,719.000,0.500,737.000,1.000,281.000,5.000,0
"04/01/08","04:04:24",11070.000,"cc",28327.152,6.00,6,0.100,8158.000,0.200,1269.000,0.300,671.000,0.500,710.000,1.000,262.000,5.000,0
"04/01/08","04:04:30",10925.000,"cc",28303.604,6.00,6,0.100,7969.000,0.200,1338.000,0.300,692.000,0.500,702.000,1.000,224.000,5.000,0
"04/01/08","04:04:36",11112.000,"cc",28325.887,6.00,6,0.100,8113.000,0.200,1337.000,0.300,649.000,0.500,750.000,1.000,263.000,5.000,0
"04/01/08","04:04:42",10908.000,"cc",28376.336,6.00,6,0.100,8011.000,0.200,1231.000,0.300,656.000,0.500,748.000,1.000,262.000,5.000,0
"04/01/08","04:04:48",11077.000,"cc",28291.508,6.00,6,0.100,8021.000,0.200,1367.000,0.300,671.000,0.500,751.000,1.000,267.000,5.000,0
"04/01/08","04:04:54",11299.000,"cc",28286.746,6.00,6,0.100,8168.000,0.200,1364.000,0.300,713.000,0.500,799.000,1.000,255.000,5.000,0
"04/01/08","04:05:00",11544.000,"cc",28270.455,6.00,6,0.100,8356.000,0.200,1317.000,0.300,770.000,0.500,830.000,1.000,271.000,5.000,0
"04/01/08","04:05:06",11428.000,"cc",28295.338,6.00,6,0.100,8384.000,0.200,1318.000,0.300,696.000,0.500,759.000,1.000,271.000,5.000,0
"04/01/08","04:05:12",11271.000,"cc",28252.852,6.00,6,0.100,8192.000,0.200,1334.000,0.300,733.000,0.500,782.000,1.000,230.000,5.000,0
"04/01/08","04:05:18",11142.000,"cc",28372.045,6.00,6,0.100,8075.000,0.200,1364.000,0.300,731.000,0.500,751.000,1.000,221.000,5.000,0
"04/01/08","04:05:24",11096.000,"cc",28394.988,6.00,6,0.100,8003.000,0.200,1373.000,0.300,707.000,0.500,761.000,1.000,252.000,5.000,0
"04/01/08","04:05:30",11079.000,"cc",28291.713,6.00,6,0.100,8003.000,0.200,1349.000,0.300,689.000,0.500,765.000,1.000,273.000,5.000,0
"04/01/08","04:05:36",11242.000,"cc",28369.420,6.00,6,0.100,8164.000,0.200,1320.000,0.300,703.000,0.500,792.000,1.000,263.000,5.000,0
"04/01/08","04:05:42",11145.000,"cc",28283.037,6.00,6,0.100,8083.000,0.200,1385.000,0.300,671.000,0.500,726.000,1.000,280.000,5.000,0
"04/01/08","04:05:48",11253.000,"cc",28336.898,6.00,6,0.100,8202.000,0.200,1283.000,0.300,714.000,0.500,785.000,1.000,269.000,5.000,0
"04/01/08","04:05:54",11190.000,"cc",28280.652,6.00,6,0.100,8031.000,0.200,1376.000,0.300,700.000,0.500,787.000,1.000,296.000,5.000,0
"04/01/08","04:06:00",11337.000,"cc",28335.863,6.00,6,0.100,8223.000,0.200,1306.000,0.300,720.000,0.500,832.000,1.000,256.000,5.000,0
"04/01/08","04:06:06",11386.000,"cc",28367.203,6.00,6,0.100,8249.000,0.200,1335.000,0.300,763.000,0.500,780.000,1.000,259.000,5.000,0
"04/01/08","04:06:12",11554.000,"cc",28331.875,6.00,6,0.100,8302.000,0.200,1378.000,0.300,756.000,0.500,815.000,1.000,303.000,5.000,0
"04/01/08","04:06:18",11577.000,"cc",28271.869,6.00,6,0.100,8323.000,0.200,1389.000,0.300,772.000,0.500,790.000,1.000,303.000,5.000,0
"04/01/08","04:06:24",11372.000,"cc",28358.627,6.00,6,0.100,8316.000,0.200,1347.000,0.300,718.000,0.500,736.000,1.000,255.000,5.000,0
"04/01/08","04:06:30",11272.000,"cc",28347.674,6.00,6,0.100,8062.000,0.200,1369.000,0.300,761.000,0.500,782.000,1.000,298.000,5.000,0
"04/01/08","04:06:36",11466.000,"cc",28263.998,6.00,6,0.100,8364.000,0.200,1385.000,0.300,706.000,0.500,741.000,1.000,270.000,5.000,0
"04/01/08","04:06:42",11516.000,"cc",28277.996,6.00,6,0.100,8310.000,0.200,1345.000,0.300,774.000,0.500,801.000,1.000,286.000,5.000,0
"04/01/08","04:06:48",11481.000,"cc",28294.857,6.00,6,0.100,8391.000,0.200,1356.000,0.300,703.000,0.500,785.000,1.000,246.000,5.000,0
"04/01/08","04:06:54",11640.000,"cc",28420.291,6.00,6,0.100,8463.000,0.200,1374.000,0.300,711.000,0.500,796.000,1.000,296.000,5.000,0
"04/01/08","04:07:00",11599.000,"cc",28277.467,6.00,6,0.100,8332.000,0.200,1410.000,0.300,700.000,0.500,854.000,1.000,303.000,5.000,0
"04/01/08","04:07:06",11588.000,"cc",28243.492,6.00,6,0.100,8310.000,0.200,1415.000,0.300,747.000,0.500,833.000,1.000,283.000,5.000,0
"04/01/08","04:07:12",11713.000,"cc",28277.445,6.00,6,0.100,8432.000,0.200,1382.000,0.300,796.000,0.500,812.000,1.000,291.000,5.000,0
"04/01/08","04:07:18",11627.000,"cc",28347.340,6.00,6,0.100,8409.000,0.200,1387.000,0.300,740.000,0.500,828.000,1.000,263.000,5.000,0
"04/01/08","04:07:24",11767.000,"cc",28310.869,6.00,6,0.100,8456.000,0.200,1456.000,0.300,727.000,0.500,859.000,1.000,269.000,5.000,0
"04/01/08","04:07:30",11695.000,"cc",28337.232,6.00,6,0.100,8442.000,0.200,1361.000,0.300,783.000,0.500,825.000,1.000,284.000,5.000,0
"04/01/08","04:07:36",11737.000,"cc",28276.660,6.00,6,0.100,8444.000,0.200,1383.000,0.300,727.000,0.500,880.000,1.000,303.000,5.000,0
"04/01/08","04:07:42",11834.000,"cc",28336.094,6.00,6,0.100,8520.000,0.200,1442.000,0.300,743.000,0.500,847.000,1.000,282.000,5.000,0
"04/01/08","04:07:48",11691.000,"cc",28302.572,6.00,6,0.100,8387.000,0.200,1443.000,0.300,709.000,0.500,864.000,1.000,288.000,5.000,0
"04/01/08","04:07:54",11715.000,"cc",28285.699,6.00,6,0.100,8495.000,0.200,1353.000,0.300,747.000,0.500,832.000,1.000,288.000,5.000,0
"04/01/08","04:08:00",11512.000,"cc",28375.033,6.00,6,0.100,8315.000,0.200,1326.000,0.300,783.000,0.500,811.000,1.000,277.000,5.000,0
"04/01/08","04:08:06",11494.000,"cc",28328.607,6.00,6,0.100,8324.000,0.200,1403.000,0.300,687.000,0.500,789.000,1.000,291.000,5.000,0
"04/01/08","04:08:12",11547.000,"cc",28315.934,6.00,6,0.100,8262.000,0.200,1388.000,0.300,755.000,0.500,866.000,1.000,276.000,5.000,0
"04/01/08","04:08:18",11564.000,"cc",28285.387,6.00,6,0.100,8374.000,0.200,1366.000,0.300,761.000,0.500,817.000,1.000,246.000,5.000,0
"04/01/08","04:08:24",11353.000,"cc",28303.783,6.00,6,0.100,8157.000,0.200,1327.000,0.300,777.000,0.500,819.000,1.000,273.000,5.000,0
"04/01/08","04:08:30",11540.000,"cc",28374.363,6.00,6,0.100,8311.000,0.200,1401.000,0.300,746.000,0.500,801.000,1.000,281.000,5.000,0
"04/01/08","04:08:36",11533.000,"cc",28373.736,6.00,6,0.100,8375.000,0.200,1362.000,0.300,780.000,0.500,751.000,1.000,265.000,5.000,0
"04/01/08","04:08:42",11337.000,"cc",28261.992,6.00,6,0.100,8146.000,0.200,1405.000,0.300,720.000,0.500,790.000,1.000,276.000,5.000,0
"04/01/08","04:08:48",11372.000,"cc",28366.295,6.00,6,0.100,8224.000,0.200,1331.000,0.300,730.000,0.500,782.000,1.000,305.000,5.000,0
"04/01/08","04:08:54",11340.000,"cc",28273.201,6.00,6,0.100,8151.000,0.200,1337.000,0.300,766.000,0.500,785.000,1.000,301.000,5.000,0
"04/01/08","04:09:00",11275.000,"cc",28332.750,6.00,6,0.100,8114.000,0.200,1359.000,0.300,735.000,0.500,790.000,1.000,277.000,5.000,0
"04/01/08","04:09:06",11598.000,"cc",28250.957,6.00,6,0.100,8374.000,0.200,1383.000,0.300,721.000,0.500,812.000,1.000,308.000,5.000,0
"04/01/08","04:09:12",11334.000,"cc",28301.289,6.00,6,0.100,8207.000,0.200,1341.000,0.300,710.000,0.500,794.000,1.000,282.000,5.000,0
"04/01/08","04:09:18",11124.000,"cc",28365.928,6.00,6,0.100,8084.000,0.200,1344.000,0.300,691.000,0.500,725.000,1.000,280.000,5.000,0
"04/01/08","04:09:24",11573.000,"cc",28289.703,6.00,6,0.100,8373.000,0.200,1381.000,0.300,763.000,0.500,780.000,1.000,276.000,5.000,0
"04/01/08","04:09:30",11244.000,"cc",28320.916,6.00,6,0.100,8143.000,0.200,1332.000,0.300,680.000,0.500,839.000,1.000,250.000,5.000,0
"04/01/08","04:09:36",11326.000,"cc",28335.535,6.00,6,0.100,8206.000,0.200,1355.000,0.300,733.000,0.500,790.000,1.000,242.000,5.000,0
"04/01/08","04:09:42",11215.000,"cc",28369.877,6.00,6,0.100,8126.000,0.200,1343.000,0.300,705.000,0.500,775.000,1.000,266.000,5.000,0
"04/01/08","04:09:48",11190.000,"cc",28288.305,6.00,6,0.100,8059.000,0.200,1350.000,0.300,724.000,0.500,786.000,1.000,270.000,5.000,1.000
"04/01/08","04:09:54",11252.000,"cc",28312.416,6.00,6,0.100,8112.000,0.200,1363.000,0.300,715.000,0.500,809.000,1.000,253.000,5.000,0
"04/01/08","04:10:00",11391.000,"cc",28304.897,6.00,6,0.100,8210.000,0.200,1366.000,0.300,743.000,0.500,804.000,1.000,268.000,5.000,0
"04/01/08","04:10:06",11385.000,"cc",28352.057,6.00,6,0.100,8202.000,0.200,1351.000,0.300,751.000,0.500,824.000,1.000,257.000,5.000,0
"04/01/08","04:10:12",11400.000,"cc",28262.768,6.00,6,0.100,8216.000,0.200,1348.000,0.300,740.000,0.500,802.000,1.000,294.000,5.000,0
"04/01/08","04:10:18",11216.000,"cc",28322.225,6.00,6,0.100,8059.000,0.200,1302.000,0.300,752.000,0.500,809.000,1.000,294.000,5.000,0
"04/01/08","04:10:24",11255.000,"cc",28271.063,6.00,6,0.100,8148.000,0.200,1382.000,0.300,674.000,0.500,792.000,1.000,259.000,5.000,0
"04/01/08","04:10:30",11219.000,"cc",28301.258,6.00,6,0.100,8148.000,0.200,1347.000,0.300,691.000,0.500,769.000,1.000,264.000,5.000,0
"04/01/08","04:10:36",11343.000,"cc",28316.580,6.00,6,0.100,8170.000,0.200,1383.000,0.300,772.000,0.500,749.000,1.000,269.000,5.000,0
"04/01/08","04:10:42",11553.000,"cc",28341.010,6.00,6,0.100,8380.000,0.200,1361.000,0.300,708.000,0.500,823.000,1.000,281.000,5.000,0
"04/01/08","04:10:48",11185.000,"cc",28319.527,6.00,6,0.100,8093.000,0.200,1299.000,0.300,719.000,0.500,797.000,1.000,277.000,5.000,0
"04/01/08","04:10:54",11552.000,"cc",28352.582,6.00,6,0.100,8366.000,0.200,1353.000,0.300,711.000,0.500,845.000,1.000,277.000,5.000,0
"04/01/08","04:11:00",11657.000,"cc",28349.488,6.00,6,0.100,8412.000,0.200,1410.000,0.300,754.000,0.500,825.000,1.000,256.000,5.000,0
"04/01/08","04:11:06",11890.000,"cc",28301.607,6.00,6,0.100,8477.000,0.200,1406.000,0.300,851.000,0.500,879.000,1.000,277.000,5.000,0
"04/01/08","04:11:12",11801.000,"cc",28319.070,6.00,6,0.100,8451.000,0.200,1424.000,0.300,768.000,0.500,881.000,1.000,277.000,5.000,0
"04/01/08","04:11:18",11718.000,"cc",28299.584,6.00,6,0.100,8407.000,0.200,1400.000,0.300,797.000,0.500,810.000,1.000,304.000,5.000,0
"04/01/08","04:11:24",11351.000,"cc",28299.176,6.00,6,0.100,8155.000,0.200,1391.000,0.300,736.000,0.500,812.000,1.000,257.000,5.000,0
"04/01/08","04:11:30",11598.000,"cc",28339.234,6.00,6,0.100,8294.000,0.200,1389.000,0.300,771.000,0.500,821.000,1.000,323.000,5.000,0
"04/01/08","04:11:36",11401.000,"cc",28333.531,6.00,6,0.100,8184.000,0.200,1384.000,0.300,758.000,0.500,796.000,1.000,279.000,5.000,0
"04/01/08","04:11:42",11187.000,"cc",28338.805,6.00,6,0.100,8071.000,0.200,1344.000,0.300,678.000,0.500,836.000,1.000,258.000,5.000,0
"04/01/08","04:11:48",11272.000,"cc",28277.623,6.00,6,0.100,8120.000,0.200,1319.000,0.300,731.000,0.500,803.000,1.000,299.000,5.000,0
"04/01/08","04:11:54",11186.000,"cc",28308.846,6.00,6,0.100,8015.000,0.200,1379.000,0.300,704.000,0.500,816.000,1.000,272.000,5.000,0
"04/01/08","04:12:00",11212.000,"cc",28325.701,6.00,6,0.100,7988.000,0.200,1312.000,0.300,780.000,0.500,863.000,1.000,269.000,5.000,0
"04/01/08","04:12:06",11558.000,"cc",28338.623,6.00,6,0.100,8305.000,0.200,1420.000,0.300,713.000,0.500,855.000,1.000,265.000,5.000,0
"04/01/08","04:12:12",11258.000,"cc",28299.961,6.00,6,0.100,8140.000,0.200,1326.000,0.300,703.000,0.500,792.000,1.000,297.000,5.000,0
"04/01/08","04:12:18",11282.000,"cc",28351.690,6.00,6,0.100,8170.000,0.200,1322.000,0.300,714.000,0.500,790.000,1.000,286.000,5.000,0
"04/01/08","04:12:24",11209.000,"cc",28303.207,6.00,6,0.100,8029.000,0.200,1351.000,0.300,715.000,0.500,810.000,1.000,304.000,5.000,0
"04/01/08","04:12:30",10975.000,"cc",28273.897,6.00,6,0.100,7907.000,0.200,1347.000,0.300,673.000,0.500,807.000,1.000,241.000,5.000,0
"04/01/08","04:12:36",11108.000,"cc",28411.324,6.00,6,0.100,7964.000,0.200,1409.000,0.300,684.000,0.500,783.000,1.000,268.000,5.000,0
"04/01/08","04:12:42",10959.000,"cc",28216.982,6.00,6,0.100,8012.000,0.200,1287.000,0.300,674.000,0.500,719.000,1.000,267.000,5.000,0
"04/01/08","04:12:48",11013.000,"cc",28365.029,6.00,6,0.100,7969.000,0.200,1308.000,0.300,682.000,0.500,773.000,1.000,281.000,5.000,0
"04/01/08","04:12:54",10792.000,"cc",28283.279,6.00,6,0.100,7781.000,0.200,1302.000,0.300,684.000,0.500,742.000,1.000,283.000,5.000,0
"04/01/08","04:13:00",11032.000,"cc",28314.537,6.00,6,0.100,8022.000,0.200,1343.000,0.300,666.000,0.500,745.000,1.000,256.000,5.000,0
"04/01/08","04:13:06",10793.000,"cc",28338.455,6.00,6,0.100,7855.000,0.200,1299.000,0.300,664.000,0.500,746.000,1.000,229.000,5.000,0
"04/01/08","04:13:12",10781.000,"cc",28292.709,6.00,6,0.100,7827.000,0.200,1278.000,0.300,690.000,0.500,720.000,1.000,266.000,5.000,0
"04/01/08","04:13:18",10819.000,"cc",28300.424,6.00,6,0.100,7826.000,0.200,1311.000,0.300,704.000,0.500,737.000,1.000,241.000,5.000,0
"04/01/08","04:13:24",11091.000,"cc",28379.721,6.00,6,0.100,8045.000,0.200,1271.000,0.300,725.000,0.500,753.000,1.000,297.000,5.000,0
"04/01/08","04:13:30",11197.000,"cc",28360.680,6.00,6,0.100,8021.000,0.200,1338.000,0.300,748.000,0.500,800.000,1.000,290.000,5.000,0
"04/01/08","04:13:36",11332.000,"cc",28274.998,6.00,6,0.100,8109.000,0.200,1370.000,0.300,744.000,0.500,826.000,1.000,283.000,5.000,0
"04/01/08","04:13:42",11107.000,"cc",28270.320,6.00,6,0.100,7932.000,0.200,1371.000,0.300,739.000,0.500,779.000,1.000,286.000,5.000,0
"04/01/08","04:13:48",11114.000,"cc",28292.623,6.00,6,0.100,7994.000,0.200,1327.000,0.300,713.000,0.500,835.000,1.000,245.000,5.000,0
"04/01/08","04:13:54",11085.000,"cc",28331.465,6.00,6,0.100,7952.000,0.200,1383.000,0.300,703.000,0.500,752.000,1.000,295.000,5.000,0
"04/01/08","04:14:00",11149.000,"cc",28349.477,6.00,6,0.100,7948.000,0.200,1437.000,0.300,722.000,0.500,771.000,1.000,271.000,5.000,0
"04/01/08","04:14:06",11037.000,"cc",28329.926,6.00,6,0.100,7908.000,0.200,1305.000,0.300,753.000,0.500,780.000,1.000,291.000,5.000,0
"04/01/08","04:14:12",11301.000,"cc",28357.773,6.00,6,0.100,8107.000,0.200,1383.000,0.300,723.000,0.500,823.000,1.000,265.000,5.000,0
"04/01/08","04:14:18",11076.000,"cc",28317.768,6.00,6,0.100,7973.000,0.200,1342.000,0.300,708.000,0.500,763.000,1.000,290.000,5.000,0
"04/01/08","04:14:24",11169.000,"cc",28389.369,6.00,6,0.100,7997.000,0.200,1309.000,0.300,725.000,0.500,851.000,1.000,287.000,5.000,0
"04/01/08","04:14:30",11129.000,"cc",28297.574,6.00,6,0.100,8023.000,0.200,1382.000,0.300,653.000,0.500,773.000,1.000,298.000,5.000,0
"04/01/08","04:14:36",11057.000,"cc",28282.488,6.00,6,0.100,7898.000,0.200,1347.000,0.300,735.000,0.500,792.000,1.000,285.000,5.000,0
"04/01/08","04:14:42",11024.000,"cc",28306.375,6.00,6,0.100,7976.000,0.200,1336.000,0.300,680.000,0.500,762.000,1.000,270.000,5.000,0
"04/01/08","04:14:48",11139.000,"cc",28284.301,6.00,6,0.100,7966.000,0.200,1357.000,0.300,722.000,0.500,802.000,1.000,292.000,5.000,0
"04/01/08","04:14:54",10985.000,"cc",28297.398,6.00,6,0.100,7881.000,0.200,1288.000,0.300,747.000,0.500,785.000,1.000,284.000,5.000,0
"04/01/08","04:15:00",11191.000,"cc",28344.496,6.00,6,0.100,7987.000,0.200,1393.000,0.300,729.000,0.500,780.000,1.000,302.000,5.000,0
"04/01/08","04:15:06",11337.000,"cc",28353.408,6.00,6,0.100,8157.000,0.200,1351.000,0.300,742.000,0.500,793.000,1.000,294.000,5.000,0
"04/01/08","04:15:12",11228.000,"cc",28319.131,6.00,6,0.100,8045.000,0.200,1368.000,0.300,740.000,0.500,775.000,1.000,300.000,5.000,0
"04/01/08","04:15:18",11335.000,"cc",28309.096,6.00,6,0.100,8126.000,0.200,1350.000,0.300,813.000,0.500,783.000,1.000,263.000,5.000,0
"04/01/08","04:15:24",11445.000,"cc",28291.121,6.00,6,0.100,8194.000,0.200,1375.000,0.300,781.000,0.500,788.000,1.000,307.000,5.000,0
"04/01/08","04:15:30",11433.000,"cc",28371.844,6.00,6,0.100,8040.000,0.200,1443.000,0.300,795.000,0.500,832.000,1.000,323.000,5.000,0
"04/01/08","04:15:36",11799.000,"cc",28381.404,6.00,6,0.100,8428.000,0.200,1402.000,0.300,805.000,0.500,863.000,1.000,301.000,5.000,0
"04/01/08","04:15:42",11225.000,"cc",28238.398,6.00,6,0.100,7977.000,0.200,1358.000,0.300,756.000,0.500,812.000,1.000,322.000,5.000,0
"04/01/08","04:15:48",11636.000,"cc",28248.744,6.00,6,0.100,8309.000,0.200,1413.000,0.300,774.000,0.500,829.000,1.000,311.000,5.000,0
"04/01/08","04:15:54",11430.000,"cc",28369.502,6.00,6,0.100,8201.000,0.200,1391.000,0.300,727.000,0.500,802.000,1.000,309.000,5.000,0
"04/01/08","04:16:00",11248.000,"cc",28319.535,6.00,6,0.100,8031.000,0.200,1364.000,0.300,779.000,0.500,789.000,1.000,285.000,5.000,0
"04/01/08","04:16:06",11103.000,"cc",28301.342,6.00,6,0.100,7932.000,0.200,1319.000,0.300,742.000,0.500,836.000,1.000,274.000,5.000,0
"04/01/08","04:16:12",11199.000,"cc",28336.969,6.00,6,0.100,7980.000,0.200,1408.000,0.300,745.000,0.500,805.000,1.000,261.000,5.000,0
"04/01/08","04:16:18",10962.000,"cc",28311.807,6.00,6,0.100,7809.000,0.200,1326.000,0.300,727.000,0.500,805.000,1.000,295.000,5.000,0
"04/01/08","04:16:24",10862.000,"cc",28288.262,6.00,6,0.100,7754.000,0.200,1400.000,0.300,695.000,0.500,753.000,1.000,260.000,5.000,0
"04/01/08","04:16:30",11127.000,"cc",28292.125,6.00,6,0.100,7976.000,0.200,1282.000,0.300,731.000,0.500,846.000,1.000,292.000,5.000,0
"04/01/08","04:16:36",11205.000,"cc",28332.809,6.00,6,0.100,7964.000,0.200,1430.000,0.300,714.000,0.500,804.000,1.000,293.000,5.000,0
"04/01/08","04:16:42",11278.000,"cc",28385.709,6.00,6,0.100,8081.000,0.200,1345.000,0.300,741.000,0.500,828.000,1.000,283.000,5.000,0